This is the latest recevied weather packets stored in our database for station/object KB1WCR. If no packets are shown the sender has not sent any weather packets the latest 10 day(s).
| Time | Temp. | Humidity | Pressure | Rain* | Wind** | Luminosity | Snow |
|---|---|---|---|---|---|---|---|
| 1788030420 | 25° C | 45% | 1020.5 hPa | 0 mm | - | 544 W/m² | - |
| 1788030116 | 25.56° C | 44% | 1020.6 hPa | 0 mm | - | 554 W/m² | - |
| 1788029816 | 25° C | 46% | 1020.7 hPa | 0 mm | - | 565 W/m² | - |
| 1788029511 | 25° C | 46% | 1020.9 hPa | 0 mm | - | 576 W/m² | - |
| 1788029210 | 25° C | 46% | 1020.7 hPa | 0 mm | - | 591 W/m² | - |
| 1788028905 | 24.44° C | 47% | 1020.9 hPa | 0 mm | - | 595 W/m² | - |
| 1788028599 | 25° C | 48% | 1021 hPa | 0 mm | - | 581 W/m² | - |
| 1788028294 | 25° C | 47% | 1021 hPa | 0 mm | - | 580 W/m² | - |
| 1788027990 | 24.44° C | 47% | 1021 hPa | 0 mm | - | 583 W/m² | - |
| 1788027685 | 25° C | 47% | 1021.1 hPa | 0 mm | - | 593 W/m² | - |
| 1788027378 | 25° C | 46% | 1021.2 hPa | 0 mm | - | 601 W/m² | - |
| 1788027073 | 24.44° C | 48% | 1021.1 hPa | 0 mm | - | 606 W/m² | - |
| 1788026768 | 24.44° C | 46% | 1021.3 hPa | 0 mm | - | 614 W/m² | - |
| 1788026464 | 24.44° C | 48% | 1021.1 hPa | 0 mm | - | 618 W/m² | - |
| 1788026164 | 24.44° C | 47% | 1021.3 hPa | 0 mm | - | 636 W/m² | - |
| 1788025863 | 24.44° C | 49% | 1021.3 hPa | 0 mm | - | 644 W/m² | - |
| 1788025557 | 23.89° C | 46% | 1021.2 hPa | 0 mm | - | 650 W/m² | - |
| 1788025251 | 24.44° C | 47% | 1021.1 hPa | 0 mm | - | 648 W/m² | - |
| 1788024946 | 24.44° C | 46% | 1021.5 hPa | 0 mm | - | 655 W/m² | - |
| 1788024642 | 23.89° C | 47% | 1021.4 hPa | 0 mm | - | 662 W/m² | - |
| 1788024337 | 24.44° C | 47% | 1021.5 hPa | 0 mm | - | 661 W/m² | - |
| 1788024033 | 23.89° C | 49% | 1021.4 hPa | 0 mm | - | 667 W/m² | - |
| 1788023732 | 23.89° C | 49% | 1021.5 hPa | 0 mm | - | 673 W/m² | - |
| 1788023428 | 23.89° C | 50% | 1021.4 hPa | 0 mm | - | 676 W/m² | - |
| 1788023128 | 23.89° C | 48% | 1021.6 hPa | 0 mm | - | 687 W/m² | - |
* Rain latest hour (hover to see other rain measurements)
** Current wind speed in m/s (hover to see current wind gust speed)